RH
10 9 9 9 8 8 8 8 8 8 9 9 10 11 11 12 13 14 14 15 15 14 14 13 12 12 12 11 11 11 12 14 17 20 21 24 29 28 25 28 29 30 33 43 55 62 67 67 68 70 70 70 72 74 73 74 75 75 79 82 82 88 91 87 85 83 79 76 68 64 64 59 53 54 58 62 61 56 56 60 58 57 54 51 54 57 58 60
11 10 10 9 8 7 7 6 6 6 5 6 6 6 6 7 8 9 11 12 13 13 14 13 13 12 12 12 12 12 12 13 15 18 20 22 27 27 25 26 28 28 31 39 48 57 63 61 62 68 70 69 69 72 74 75 76 78 81 84 84 87 89 84 84 84 81 78 71 66 62 57 55 58 61 60 57 53 56 60 56 54 50 47 52 55 57 58
11 11 10 9 9 9 8 8 7 6 5 5 5 5 5 5 5 6 6 7 8 10 11 12 13 12 12 12 12 13 14 13 14 17 18 20 25 25 25 26 26 26 29 37 44 51 56 55 59 65 70 70 68 72 75 75 76 78 81 85 84 84 86 83 83 83 80 79 74 69 63 59 59 61 64 61 58 57 58 56 51 51 47 45 50 51 54 56
11 11 11 11 10 10 9 9 8 8 7 6 6 5 5 5 5 5 5 5 6 6 8 9 10 11 12 11 12 13 14 15 16 17 18 19 23 25 24 24 25 24 28 36 44 51 53 52 56 61 67 69 68 69 72 74 75 77 80 83 81 81 85 82 81 81 78 78 76 72 67 66 62 61 64 64 64 64 61 55 46 46 45 44 47 49 53 55
10 10 11 11 11 11 10 10 9 9 8 8 7 6 6 6 6 5 5 5 6 5 6 7 7 8 10 10 11 11 14 18 18 16 17 17 20 24 24 23 23 24 28 35 44 51 53 51 53 58 63 65 66 67 68 70 73 77 79 80 78 79 83 81 81 82 80 79 78 74 72 70 64 61 64 65 67 66 60 54 45 42 44 44 45 46 51 53
10 10 10 10 10 11 11 11 10 10 9 9 8 7 7 6 6 6 5 5 5 5 6 6 7 6 7 8 9 10 13 17 17 15 15 15 18 22 23 22 23 24 28 35 44 50 52 52 55 59 61 61 64 66 66 70 74 78 79 79 78 78 81 81 81 82 79 78 78 77 75 71 66 63 65 67 68 67 61 55 47 40 40 42 43 44 48 51
11 11 10 10 9 9 10 10 10 10 10 9 9 8 8 7 6 6 6 5 5 5 5 6 6 6 6 6 8 9 11 14 15 15 15 15 17 20 22 22 22 25 30 36 43 48 50 53 57 58 58 60 62 63 66 69 71 77 79 77 77 76 77 79 79 79 78 76 77 78 74 72 72 69 68 67 67 67 63 57 50 41 37 39 41 43 45 46
12 11 11 10 10 9 9 9 9 10 11 10 9 9 9 8 7 7 6 6 6 5 5 5 5 6 6 5 7 9 11 13 14 14 14 14 16 19 21 22 21 25 31 36 41 46 46 49 56 55 54 57 59 62 66 67 68 73 75 74 76 77 77 78 77 76 76 75 76 77 73 74 76 71 70 68 66 66 63 60 54 44 38 38 40 44 45 47
13 12 12 11 11 10 9 9 8 9 9 10 10 9 9 9 8 8 7 6 6 5 5 5 5 6 6 6 6 8 9 13 14 15 14 14 16 19 20 20 21 25 31 36 41 44 43 46 52 51 48 51 57 60 62 65 67 65 68 73 75 76 76 77 76 74 75 75 77 78 76 76 75 71 69 67 67 67 65 61 56 48 40 39 41 43 45 49
14 14 13 12 11 11 10 10 9 8 8 9 9 9 9 9 9 8 8 7 6 5 5 5 5 6 6 5 6 8 9 13 15 15 14 14 17 19 19 19 20 24 30 35 41 43 42 42 45 46 46 50 55 59 61 63 63 57 59 67 69 71 72 72 72 71 73 74 75 78 80 79 74 72 71 67 67 67 66 63 58 53 45 43 45 44 46 50
15 15 14 13 12 11 10 10 10 9 8 8 8 9 9 9 8 8 8 8 6 6 5 5 5 5 6 6 6 8 10 13 14 15 15 15 17 18 18 19 19 22 28 34 40 42 41 38 38 42 45 48 53 58 60 60 59 57 59 65 66 67 69 68 68 68 71 73 73 75 78 76 74 76 74 68 68 68 69 67 61 57 51 49 50 46 50 54
17 16 15 15 14 13 11 11 10 10 9 8 8 8 9 9 9 8 9 8 7 6 5 5 5 5 6 6 6 6 9 13 13 13 15 15 17 17 17 19 18 21 27 33 39 40 38 36 35 37 38 44 53 57 59 57 59 60 62 69 70 68 68 66 65 66 69 71 69 69 72 74 75 77 73 68 69 70 70 70 63 59 55 54 53 49 51 55
18 17 17 16 15 14 13 12 11 10 9 9 8 7 9 9 9 8 9 8 7 6 5 5 5 5 5 6 5 4 8 12 12 12 13 14 16 17 19 20 18 20 27 34 38 36 34 34 34 34 32 38 47 53 56 55 60 64 62 69 72 68 66 64 64 67 68 68 64 64 72 76 75 72 70 69 70 70 70 70 64 60 59 57 56 50 51 54
18 18 17 17 16 15 14 13 12 10 10 9 9 8 7 9 9 8 9 9 8 7 5 5 5 5 5 5 4 4 6 9 9 11 13 13 15 17 19 20 19 19 23 30 36 34 30 32 35 33 31 33 40 49 54 54 61 67 63 65 69 68 65 62 64 66 65 65 61 64 75 78 73 69 67 68 70 70 71 69 66 62 59 59 58 52 52 55
18 18 18 17 16 15 15 15 13 12 11 10 10 9 8 8 9 9 9 9 8 7 5 5 5 5 6 5 4 5 6 6 7 10 11 12 13 16 18 18 18 18 20 25 31 29 27 31 33 32 32 32 38 48 52 56 64 67 64 64 64 65 66 65 62 62 64 64 61 66 75 74 69 67 64 66 69 71 71 69 70 67 59 59 60 55 53 56
17 17 17 17 16 16 15 15 14 14 12 11 11 11 9 8 9 9 9 9 8 7 5 6 7 7 8 7 6 6 6 6 9 10 10 11 13 15 16 16 17 18 18 20 24 24 23 28 30 31 31 30 39 51 52 55 61 61 62 64 63 61 64 67 61 58 62 65 64 68 72 68 65 65 63 66 70 72 73 70 72 71 64 62 64 61 59 58
18 17 16 16 16 15 15 15 15 14 13 12 12 12 11 9 9 9 10 9 9 7 5 7 11 10 8 8 8 7 6 7 9 9 9 10 12 14 15 16 17 18 19 19 22 22 22 25 27 29 29 27 37 50 54 56 56 57 59 60 61 61 62 65 61 56 56 60 63 68 70 67 64 63 63 66 69 70 73 72 72 71 68 66 66 66 64 60
18 18 17 17 16 15 15 15 15 15 14 13 13 13 12 10 10 10 10 10 9 7 6 7 10 11 10 8 8 9 9 9 10 9 9 9 11 14 14 16 18 19 21 20 19 19 19 22 25 27 26 25 29 40 50 52 50 53 56 56 59 60 59 60 58 53 50 53 57 62 69 67 65 65 63 64 66 68 71 72 72 71 70 70 68 68 67 63
18 18 19 18 18 17 16 14 15 15 14 13 14 14 13 11 14 15 12 11 10 9 7 7 8 9 10 9 9 11 11 11 11 10 11 10 10 13 15 17 19 20 20 19 17 15 16 19 23 24 23 22 24 33 42 45 45 49 52 53 56 57 55 55 54 50 47 51 53 54 61 64 64 65 63 62 63 66 69 71 72 72 73 73 71 70 69 66
17 18 18 19 19 19 18 16 15 15 15 14 14 14 13 12 16 18 15 12 11 10 9 8 6 6 7 8 10 11 11 12 12 11 11 11 11 13 15 18 19 20 20 17 16 15 15 17 19 19 20 22 24 28 33 39 43 47 50 50 50 51 50 49 50 49 46 50 52 49 53 59 62 63 64 63 61 62 66 69 71 72 73 74 72 71 68 67
18 18 17 18 19 19 20 18 16 16 16 15 14 14 13 12 14 16 14 13 11 11 10 9 8 6 6 9 10 10 11 12 13 12 12 12 11 12 15 17 18 20 19 16 17 17 16 17 16 14 19 25 26 26 27 32 37 44 48 48 46 45 44 43 47 50 47 48 50 48 49 53 56 60 62 63 62 61 62 65 67 68 70 71 69 70 69 68
17 18 18 18 18 19 21 20 19 18 18 17 16 15 14 14 14 14 13 12 11 11 11 10 9 8 8 9 10 11 12 12 11 11 12 12 10 12 15 17 18 19 18 17 18 19 18 18 16 17 24 29 29 27 27 27 30 37 44 46 42 39 41 43 46 51 49 49 51 50 49 49 51 56 59 61 62 61 59 59 60 62 65 67 66 68 68 67
15 15 16 16 17 18 20 20 21 20 21 19 18 18 18 16 15 15 15 13 12 11 11 10 10 9 9 10 11 12 12 10 9 10 12 11 9 11 14 16 17 18 18 18 19 21 21 19 18 21 27 30 29 27 27 29 31 36 41 43 40 37 39 41 45 51 51 50 51 50 49 49 51 54 56 58 59 59 58 57 56 58 61 64 64 66 66 64
14 14 14 14 14 16 18 19 19 21 22 20 20 21 20 19 19 18 17 16 14 13 12 10 10 10 9 10 11 12 12 10 9 9 11 10 9 11 14 15 16 17 18 18 18 22 22 19 19 20 23 26 27 27 30 33 35 35 38 39 38 36 35 37 44 50 50 50 49 48 49 50 52 53 54 55 55 56 59 59 57 57 58 60 62 65 65 62
13 13 14 14 13 14 16 16 17 20 22 22 22 21 20 20 20 20 20 20 19 18 15 14 14 13 11 11 12 12 12 11 9 10 10 9 8 10 14 15 16 17 17 16 18 21 20 18 20 20 20 21 25 28 30 31 33 32 33 35 36 36 35 39 46 50 52 53 47 44 49 51 51 52 52 54 54 54 57 59 59 57 55 56 58 61 63 62
10 11 12 13 13 13 14 15 16 19 21 22 22 21 21 21 20 20 21 24 23 19 19 18 17 17 16 15 14 14 14 11 10 11 10 9 9 10 13 14 15 16 17 17 19 19 18 18 19 20 20 20 22 27 28 26 28 28 30 31 32 33 35 39 45 48 52 52 43 39 45 50 48 47 50 54 55 53 54 56 57 56 54 53 53 55 58 61
9 10 10 12 12 12 13 14 16 18 20 22 22 23 23 21 20 19 21 28 27 20 20 21 20 20 19 18 17 17 17 14 12 12 11 10 11 11 13 14 14 15 16 19 20 19 19 20 20 20 22 21 22 28 28 24 22 23 26 29 29 30 33 37 41 43 45 44 40 37 41 48 49 44 46 52 56 56 54 53 53 52 51 50 51 53 55 58
9 9 10 11 12 12 13 15 16 16 18 21 21 23 23 22 21 20 24 32 28 19 20 22 21 22 22 21 20 18 18 16 15 15 12 11 12 13 13 14 13 14 16 18 19 19 20 21 22 22 23 23 23 26 27 22 18 20 24 27 27 27 31 35 38 40 42 43 41 40 39 44 49 47 46 49 53 55 52 51 51 50 49 50 52 54 56 57
10 10 10 11 12 12 13 15 16 15 17 19 19 21 22 21 21 22 27 32 25 19 22 23 23 23 23 24 23 22 20 19 19 19 16 14 14 13 14 14 14 14 15 16 17 19 20 21 23 23 22 23 23 24 24 20 18 23 26 27 27 28 30 33 36 39 42 43 40 40 38 39 44 48 48 50 53 52 50 50 50 49 49 50 53 56 57 58
11 12 12 13 13 13 13 15 16 17 18 20 19 19 20 21 22 26 29 28 23 22 23 23 24 24 24 25 25 24 23 22 21 21 20 17 16 15 15 15 15 15 17 16 16 18 19 19 22 21 20 21 21 22 22 20 22 26 27 27 27 29 31 33 37 38 40 41 38 38 38 36 41 45 46 47 49 48 48 50 50 48 49 51 53 55 56 56
14 14 14 15 14 14 14 16 17 17 19 20 20 18 19 21 24 29 29 24 22 25 25 26 26 25 25 26 26 25 26 25 22 21 22 21 20 19 17 16 16 16 18 17 17 18 18 19 20 18 18 20 20 20 19 20 25 26 27 27 27 30 34 33 36 35 34 39 38 34 36 37 38 40 40 41 42 45 46 47 47 47 49 52 53 53 53 54
16 17 17 17 17 16 17 18 19 18 19 20 19 18 19 23 24 27 27 23 25 29 28 29 30 28 26 26 26 26 26 26 23 21 22 22 22 22 19 19 18 17 18 18 17 19 18 19 19 18 18 19 18 19 18 20 23 24 26 28 27 31 34 33 36 34 32 36 33 30 33 36 37 37 37 39 40 45 46 43 44 46 48 50 49 50 53 54
17 19 20 19 19 19 19 21 21 20 21 21 20 19 21 25 25 24 23 24 27 30 30 29 30 30 28 26 26 25 25 26 25 22 22 22 23 23 21 21 19 17 18 18 18 20 19 18 18 17 18 18 18 18 18 18 20 21 24 25 26 32 34 35 38 36 33 34 32 32 33 36 40 40 39 39 39 43 45 43 42 43 44 44 44 46 51 53
18 20 21 21 19 20 21 22 23 23 23 21 21 23 23 24 25 23 24 25 26 29 31 29 28 30 30 29 28 26 25 25 25 23 23 23 24 24 23 22 21 19 20 20 19 19 20 20 18 17 19 21 21 19 16 17 18 20 21 21 25 31 33 37 40 36 33 34 35 36 37 40 44 43 42 41 39 41 43 42 42 40 39 38 39 43 48 50
17 19 20 20 19 20 21 23 24 25 25 23 24 26 26 25 24 24 25 25 26 30 32 30 29 31 32 30 28 26 26 25 25 24 24 24 24 24 25 24 24 23 22 21 20 18 19 20 21 22 23 24 25 22 19 18 18 19 19 19 20 24 26 30 37 38 36 37 38 38 39 42 44 44 44 44 42 43 43 43 42 39 38 38 40 42 44 45
17 18 19 20 19 20 21 21 23 25 26 26 29 30 28 26 24 24 26 28 30 33 34 34 34 33 33 30 27 27 27 27 27 26 24 24 24 24 25 25 26 26 24 22 20 18 19 21 23 24 23 22 24 25 23 21 20 19 18 17 17 20 22 27 34 36 34 37 40 40 42 44 44 45 45 45 46 45 44 44 42 41 43 43 42 42 41 42
18 20 21 21 20 20 20 20 21 24 25 27 32 34 30 26 24 25 29 31 33 36 37 38 38 36 35 33 30 29 29 28 28 27 26 26 24 23 24 25 26 27 25 23 20 18 21 24 23 22 23 21 22 25 25 22 20 18 17 17 19 21 23 28 32 31 31 36 38 38 43 47 47 48 46 44 45 45 46 46 44 44 44 42 41 41 41 43
20 23 24 23 22 21 21 21 22 23 25 28 33 36 32 27 25 26 29 31 34 36 38 40 39 37 37 36 33 31 29 28 30 29 28 28 26 24 23 25 25 26 25 24 22 20 21 25 24 23 23 22 21 23 25 22 19 17 17 20 22 22 22 25 27 25 28 35 36 39 46 48 45 44 43 43 44 45 46 46 47 46 43 41 41 43 44 44
19 25 27 24 23 23 21 21 22 23 24 27 32 33 31 28 26 28 32 34 36 38 39 40 38 37 37 36 34 33 31 30 31 30 29 29 27 25 24 25 25 26 27 26 23 21 22 24 26 25 23 22 22 22 23 23 19 17 18 21 22 24 23 23 23 23 27 33 37 41 45 47 46 43 40 42 43 44 45 48 50 48 44 42 41 42 45 45
17 24 26 23 24 25 22 20 21 22 23 27 29 29 30 27 26 30 35 36 39 41 41 40 38 37 37 36 34 34 33 33 32 32 31 28 27 26 25 25 25 26 29 27 24 22 22 25 27 25 23 22 21 21 21 21 20 17 17 19 20 21 22 23 24 25 26 31 39 46 46 46 49 45 39 39 42 43 44 47 49 47 43 43 41 42 45 46
15 21 24 24 26 26 21 20 22 25 27 29 29 29 33 32 29 31 35 37 39 41 41 40 38 37 37 36 36 36 35 35 35 34 33 30 27 26 25 25 26 27 29 29 26 24 24 27 27 25 25 23 21 21 20 20 20 17 16 19 20 20 22 25 27 25 24 27 36 43 44 43 45 41 37 40 42 43 45 46 47 46 43 42 40 41 44 44
17 22 24 26 28 25 22 24 27 28 29 30 28 29 34 38 35 35 37 38 40 40 40 41 40 40 38 37 37 37 37 37 36 35 36 34 30 29 28 27 27 28 29 30 27 25 27 29 27 28 29 26 22 22 20 20 20 17 16 18 20 22 23 24 26 27 26 28 33 39 41 40 42 40 39 42 43 44 47 47 45 45 42 40 41 41 41 40
19 21 22 26 29 26 26 30 31 30 31 30 30 30 33 38 41 41 39 39 41 41 41 41 42 43 43 41 40 39 39 38 37 37 37 36 34 33 33 32 29 29 30 29 29 27 28 30 29 31 33 29 25 24 22 20 20 16 16 19 21 23 23 23 24 27 30 32 36 43 46 44 44 43 42 44 43 45 47 46 43 43 41 40 40 40 38 38
20 22 23 24 26 27 29 32 33 33 32 30 29 31 33 36 42 45 42 40 41 42 45 45 43 44 45 44 42 42 43 42 40 39 39 39 38 37 36 34 31 32 33 32 30 29 29 31 30 29 32 31 30 27 22 21 20 17 17 20 21 22 22 21 22 25 29 31 33 40 45 45 43 42 42 43 43 46 49 48 44 44 43 40 39 38 36 36
19 24 26 24 23 26 31 32 32 34 33 30 30 32 33 36 41 46 47 46 44 44 46 47 45 44 43 42 43 46 49 47 43 42 41 40 40 39 37 35 33 35 38 36 33 31 31 32 32 30 29 29 31 31 28 25 22 18 17 20 21 20 20 21 22 25 30 33 33 34 39 42 41 40 41 44 44 46 50 48 44 42 42 40 39 38 36 35
18 22 27 29 26 26 30 30 31 34 33 32 32 33 34 36 38 40 43 47 48 49 50 50 46 44 42 41 42 46 51 50 45 44 43 41 41 41 39 38 36 37 38 37 35 34 33 33 34 34 29 27 31 34 32 27 23 20 18 19 20 18 18 20 23 25 30 33 33 33 35 37 39 40 42 43 44 45 47 47 45 41 40 39 38 38 37 36
18 20 25 31 32 31 33 32 33 35 34 34 35 33 34 36 37 37 39 42 46 49 53 54 51 50 52 51 48 47 50 51 48 45 45 44 43 41 40 39 38 39 39 37 35 36 35 33 33 33 29 26 28 31 28 24 22 22 21 19 18 17 17 18 20 23 28 30 32 33 33 34 38 40 42 42 44 45 45 45 43 40 39 39 38 38 39 39
19 21 22 25 28 31 33 33 32 33 34 37 40 38 38 40 38 36 37 39 42 45 50 55 56 57 60 58 55 52 49 50 49 46 46 47 46 43 41 39 39 41 42 41 39 38 36 34 33 31 29 27 28 28 28 26 24 24 24 21 19 18 17 18 21 24 26 27 29 32 33 33 34 37 39 40 43 44 44 43 41 40 39 38 37 39 40 40
22 23 21 21 25 26 27 27 28 31 33 37 43 44 44 42 39 36 34 34 38 41 46 52 55 57 60 60 59 58 53 53 53 49 46 48 49 48 45 44 43 42 43 43 43 40 37 37 35 31 28 29 28 27 28 27 25 25 25 23 22 20 18 19 22 24 25 25 26 30 33 33 32 35 36 37 40 43 43 42 40 40 40 38 37 39 39 40
26 27 24 24 27 26 26 28 29 33 35 35 38 41 39 37 38 38 36 35 38 41 43 47 49 52 58 61 61 59 56 55 57 54 50 50 53 52 51 52 49 45 45 44 44 41 39 40 38 33 30 30 29 28 28 28 27 26 24 23 24 23 21 20 21 23 26 27 26 29 33 34 32 34 35 36 38 42 44 42 40 39 39 38 38 39 40 42
25 29 27 28 30 28 29 32 32 34 35 34 34 36 35 35 36 38 39 40 42 45 46 47 49 49 53 58 60 58 55 52 54 54 52 53 55 53 53 54 51 49 48 47 45 44 42 41 39 34 31 31 30 29 29 28 28 27 25 24 24 23 23 22 23 25 27 28 29 32 34 33 33 35 36 37 40 41 42 42 42 41 39 37 38 39 41 43
20 24 24 26 30 30 33 36 35 34 35 35 35 36 36 37 37 38 42 44 44 47 48 50 50 51 52 54 56 57 56 53 50 50 51 53 54 53 52 52 50 50 50 48 47 48 45 43 41 37 33 32 31 30 30 29 29 30 29 25 24 24 26 27 27 27 28 28 31 32 30 30 33 35 36 39 40 40 41 43 43 42 40 38 38 39 41 42